Location: Ertinghausen
(51.6624°N, 9.7874°E)
Time: 22:00:14
(UTC+00:00)

CZ-2C R/B - Pass Details

Date: 19 August 2024
Orbit: 703 x 904 km, 98.2° (Epoch: 07 September)

Event Time Altitude Azimuth Distance (km) Brightness Sun altitude
Rises 00:43:29 0° 20° (NNE) 3,250 7.7 -23.4°
Reaches altitude 10° 00:45:54 10° 28° (NNE) 2,349 6.6 -23.3°
Maximum altitude 00:50:46 39° 97° (E) 1,202 4.1 -23.0°
Enters shadow 00:52:48 29° 142° (SE) 1,489 4.2 -22.9°
